SCP
0 0 0 0 0 0 0 0 0 0 0 0 0 0 0 0 0 0 0 0 0 0 0 0 1 1 1 1 1 0 0 1 1 1 1 1 1 1 1 1 1 1 1 1 1 1 1 1 1
0 0 0 0 0 0 0 0 0 0 0 0 0 0 0 0 0 0 0 0 0 0 0 0 1 1 1 1 1 0 1 1 1 1 1 1 1 1 1 1 1 1 1 1 1 1 1 1 0
0 0 0 0 0 0 0 0 0 0 0 0 0 0 0 0 0 0 0 0 0 0 0 0 0 1 1 0 0 0 1 1 1 1 1 1 1 1 1 1 1 1 1 1 1 1 1 1 0
0 0 0 0 0 0 0 0 0 0 0 0 0 0 0 0 0 0 0 0 0 0 0 0 0 0 0 0 0 0 1 1 1 1 1 1 1 1 1 1 1 1 1 1 1 1 1 1 1
0 0 0 0 0 0 0 0 0 0 0 0 0 0 0 0 0 0 0 0 0 0 0 0 0 1 1 1 1 0 0 0 0 0 0 0 0 1 1 1 1 1 1 1 1 1 1 1 1
0 0 0 0 0 0 0 0 0 0 0 0 0 0 0 0 0 0 0 0 0 0 0 0 0 1 1 1 1 1 0 0 0 0 0 0 0 0 1 1 1 0 0 0 0 0 1 1 1
0 0 0 0 0 0 0 0 0 0 0 0 0 0 0 0 0 0 0 0 0 0 0 0 0 0 1 1 1 1 0 0 0 0 0 0 0 0 0 0 0 0 0 0 0 1 1 1 1
0 0 0 0 0 0 0 0 0 0 0 0 0 0 0 0 0 0 0 0 0 0 0 0 0 0 0 0 1 0 0 0 0 0 0 0 0 0 0 0 1 1 0 0 1 1 1 1 1
0 0 0 0 0 0 0 0 0 0 0 0 0 0 0 0 0 0 0 0 0 0 0 0 0 0 0 0 0 0 0 0 0 0 0 0 0 0 0 1 1 1 1 1 1 1 1 1 2
0 0 0 0 0 0 0 0 0 0 0 0 0 0 0 0 0 0 0 0 0 0 0 0 0 0 0 0 0 0 0 0 0 0 0 0 0 0 0 1 1 1 1 1 1 2 2 2 2
0 0 0 0 0 0 0 0 0 0 0 0 0 0 0 0 0 0 0 0 0 0 0 0 0 0 0 0 0 0 0 0 0 0 0 0 0 0 0 0 1 1 1 1 2 2 2 2 1
0 0 0 0 0 0 0 0 0 0 0 0 0 0 0 0 0 0 0 0 0 0 0 0 0 0 0 0 0 0 0 0 0 0 0 0 0 0 0 0 0 0 1 1 2 2 2 1 1
0 0 0 0 0 0 0 0 0 0 0 0 0 0 0 0 0 0 0 0 0 0 0 0 0 0 0 0 0 0 0 0 0 0 0 0 0 0 0 0 0 0 1 1 1 1 1 1 1
0 0 0 0 0 0 0 0 0 0 0 0 0 0 0 0 0 0 0 0 0 0 0 0 0 0 0 0 0 0 0 0 0 0 0 0 0 0 0 0 0 0 0 0 1 0 0 0 0
0 0 0 0 0 0 0 0 0 0 0 0 0 0 0 0 0 0 0 0 0 0 0 0 0 0 0 0 0 0 0 0 0 0 0 0 0 0 0 0 0 0 0 0 0 0 0 0 0
0 0 0 0 0 0 0 0 0 0 0 0 0 0 0 0 0 0 0 0 0 0 0 0 0 0 0 0 0 0 0 0 0 0 0 0 0 0 0 0 0 0 0 0 0 0 0 0 0
0 0 0 0 0 0 0 0 0 0 0 0 0 0 0 0 0 0 0 0 0 0 0 0 0 0 0 0 0 0 0 0 0 0 0 0 0 0 0 0 0 0 0 0 0 0 0 0 0
0 0 0 0 0 0 0 0 0 0 0 0 0 0 0 0 0 0 0 0 0 0 0 0 0 0 0 0 0 0 0 0 0 0 0 0 0 0 0 0 0 0 0 0 0 0 0 0 0
0 0 0 0 0 0 0 0 0 0 0 0 0 0 0 0 0 0 0 0 0 0 0 0 0 0 0 0 0 0 0 0 0 0 0 0 0 0 0 0 0 0 0 0 0 0 0 0 0
0 0 0 0 0 0 0 0 0 0 0 0 0 0 0 0 0 0 0 0 0 0 0 0 0 0 0 0 0 0 0 0 0 0 0 0 0 0 0 0 0 0 0 0 0 0 0 0 0
0 0 0 0 0 0 0 0 0 0 0 0 0 0 0 0 0 0 0 0 0 0 0 0 0 0 0 0 0 0 0 0 0 0 0 0 0 0 0 0 0 0 0 0 0 0 0 0 0
0 0 0 0 0 0 0 0 0 0 0 0 0 0 0 0 0 0 0 0 0 0 0 0 0 0 0 0 0 0 1 0 0 0 0 0 0 0 0 0 0 0 0 0 0 0 0 0 0
0 0 0 0 0 0 0 0 0 0 0 0 0 0 0 0 0 0 0 0 0 0 0 0 0 0 0 0 0 0 0 0 0 0 0 0 0 0 0 0 0 0 0 0 0 0 0 0 0
0 0 0 0 0 0 0 0 0 0 0 0 0 0 0 0 0 0 0 0 0 0 0 0 0 0 0 0 0 0 0 0 0 0 0 0 0 0 0 0 0 0 0 0 0 0 0 0 0
0 0 0 0 0 0 0 0 0 0 0 0 0 0 0 0 0 0 0 0 0 0 0 0 0 0 0 0 0 0 0 0 0 0 0 0 0 0 0 0 0 0 0 0 0 0 0 0 0
0 0 0 0 0 0 0 0 0 0 0 0 0 0 0 0 0 0 0 0 0 0 0 0 0 0 0 0 0 0 0 0 0 0 0 0 0 0 0 0 0 0 0 0 0 0 0 0 0
0 0 0 0 0 0 0 0 0 0 0 0 0 0 0 0 0 0 0 0 0 0 0 0 0 0 0 0 0 0 0 0 0 0 0 0 0 0 0 0 0 0 0 0 0 0 0 0 0
0 0 0 0 0 0 0 0 0 0 0 0 0 0 0 0 0 0 0 0 0 0 0 0 0 0 0 0 0 0 0 0 0 0 0 0 0 0 0 0 0 0 0 0 0 0 0 0 0
0 0 0 0 0 0 0 0 0 0 0 0 0 0 0 0 0 0 0 0 0 0 0 0 0 0 0 0 0 0 0 0 0 0 0 0 0 0 0 0 0 0 0 0 0 0 0 0 0
0 0 0 0 0 0 0 0 0 0 0 0 0 0 0 0 0 0 0 0 0 0 0 0 0 0 0 0 0 0 0 0 0 0 0 0 0 0 0 0 0 0 0 0 0 0 0 0 0
Wind_Speed
2 4 3 4 7 6 3 2 1 2 3 2 3 5 5 4 2 1 2 1 1 1 1 1 1 2 3 3 4 4 5 6 7 7 7 7 6 6 6 6 7 7 8 8 8 8 9 9 9
2 2 4 5 6 4 2 2 2 2 3 3 3 4 5 3 1 1 1 1 0 0 1 1 1 2 3 3 4 4 5 6 6 6 7 7 6 6 6 6 7 7 8 8 8 9 9 9 9
2 4 5 5 4 3 2 0 1 2 3 2 3 4 3 2 1 1 2 1 1 1 1 2 1 2 3 3 4 4 5 5 6 6 7 6 6 6 6 7 7 8 8 8 8 9 9 9 10
3 5 6 6 5 0 2 2 2 3 2 4 3 3 2 2 0 1 1 2 1 1 2 2 1 2 2 3 4 4 4 5 5 6 6 6 6 7 7 7 8 8 8 8 8 8 9 9 10
5 5 6 4 3 2 1 1 2 3 2 3 3 3 2 4 2 2 2 2 1 1 2 2 1 2 2 3 3 4 4 4 4 5 5 6 6 7 7 7 8 8 8 9 8 8 8 9 9
5 5 5 3 1 1 1 1 3 4 3 3 3 3 1 2 1 1 2 1 1 0 2 3 3 3 3 3 3 3 4 4 5 5 5 6 6 6 7 7 7 8 8 8 8 8 8 9 9
5 5 4 3 1 1 1 1 3 3 2 1 3 3 1 2 1 1 2 1 1 1 2 2 3 4 4 4 4 3 4 4 5 6 6 6 6 6 7 6 6 7 7 7 8 8 9 9 9
5 5 4 2 2 0 1 2 2 3 2 2 3 4 2 3 1 2 2 2 2 2 2 2 2 3 3 3 4 4 4 5 6 6 6 7 7 6 6 6 6 6 7 7 8 9 9 10 10
4 6 2 2 3 2 1 2 1 2 3 2 1 2 2 3 4 4 3 2 2 2 2 2 2 3 3 2 4 4 5 6 6 5 6 6 4 4 3 5 6 6 7 7 8 9 9 9 10
5 4 2 3 4 3 2 2 3 3 3 2 2 2 3 4 4 4 3 1 1 1 2 2 2 2 3 3 3 3 3 3 4 3 4 3 3 3 4 6 7 8 8 8 9 10 9 7 4
3 4 2 1 3 4 3 2 2 5 1 3 4 4 3 3 3 3 2 2 1 0 1 1 2 2 2 2 2 2 2 2 3 3 3 3 3 3 3 3 4 5 6 4 6 6 4 4 4
3 1 2 2 3 3 3 2 2 3 4 4 5 6 5 4 4 3 3 2 1 1 0 1 1 2 2 2 2 2 2 2 2 2 3 3 2 2 2 2 3 3 2 3 3 3 4 5 5
3 1 1 2 3 3 3 2 2 2 2 3 5 4 4 4 3 2 2 2 2 1 0 1 1 2 2 2 2 2 2 2 2 2 2 3 2 2 2 2 3 3 2 3 3 3 4 4 5
2 2 2 2 2 2 3 0 1 3 2 4 5 4 4 4 4 2 2 2 2 2 1 0 1 2 2 2 2 2 2 2 2 2 2 2 2 2 2 3 3 3 3 3 3 4 4 4 4
3 4 3 1 1 1 3 1 3 3 4 4 4 4 3 4 3 4 4 3 3 2 1 1 1 2 3 3 2 2 2 2 2 2 2 3 3 2 3 3 3 2 3 4 4 4 4 4 4
4 3 1 3 1 2 4 4 5 3 5 5 4 3 3 4 4 4 3 3 3 2 1 1 1 3 3 2 2 2 2 2 2 2 2 3 3 3 3 3 2 2 3 3 4 3 4 4 4
3 1 2 4 2 3 3 5 4 3 5 5 4 4 4 4 4 4 3 3 3 3 2 2 2 2 2 2 2 3 3 3 2 2 2 2 3 3 3 3 2 3 3 3 3 3 3 3 3
2 2 2 3 2 4 3 6 5 2 5 6 5 4 4 5 6 4 3 3 3 3 3 3 2 2 2 2 2 3 3 3 2 2 2 2 3 3 3 3 3 3 3 3 3 3 3 3 3
2 2 3 4 2 4 5 6 7 3 4 5 5 5 5 6 4 1 2 3 3 3 3 3 3 2 2 2 2 2 1 1 2 2 2 2 3 3 3 3 3 3 3 3 3 3 4 3 2
2 2 3 4 1 3 2 5 5 3 4 6 7 7 6 4 2 2 3 3 3 4 3 3 3 3 2 2 2 1 1 0 0 1 2 2 2 2 3 3 2 2 3 3 3 3 2 1 2
3 4 4 3 2 2 1 5 4 3 2 2 4 5 5 6 5 4 3 3 3 3 4 4 3 3 3 3 2 2 2 2 2 2 1 1 1 1 2 2 2 2 2 2 2 2 3 2 1
3 4 3 2 1 2 0 4 6 3 3 3 4 4 5 5 5 4 4 4 4 4 3 3 3 3 2 3 3 3 2 1 1 1 0 1 1 1 1 2 2 2 2 2 1 2 2 2 1
4 0 1 1 2 1 1 1 8 3 4 5 5 6 6 6 6 6 6 6 5 4 4 3 3 2 2 2 3 3 2 2 1 0 0 1 1 1 1 2 2 2 2 2 2 2 2 2 2
2 4 5 5 4 1 2 2 6 3 5 5 4 5 5 5 5 5 4 4 3 3 3 3 3 2 2 2 3 4 3 2 2 1 1 0 1 1 0 1 2 2 2 2 2 2 2 1 1
4 5 4 5 4 4 2 2 8 6 4 4 5 5 5 5 5 5 5 5 5 5 4 3 3 3 2 2 2 3 4 4 3 3 2 2 1 1 1 1 2 2 2 2 2 2 2 2 2
3 6 5 3 3 5 2 4 7 5 4 2 2 2 3 4 5 5 6 6 6 6 5 4 4 4 3 3 3 3 3 2 2 3 3 3 2 3 2 2 2 2 2 2 2 2 2 2 1
4 2 4 5 1 2 5 5 7 2 3 3 2 1 2 4 5 5 5 5 5 5 5 5 5 4 4 4 3 2 2 2 3 3 2 2 3 2 2 3 2 2 2 2 2 2 2 2 1
4 7 5 4 2 3 5 4 5 5 4 3 2 2 3 3 4 4 5 5 5 5 4 3 4 5 4 4 4 3 3 2 2 2 3 3 3 2 2 2 2 2 2 2 2 2 2 2 1
3 3 4 4 4 4 3 7 5 5 4 4 4 4 3 3 4 4 4 4 4 4 4 4 4 3 3 3 3 3 2 2 2 2 3 3 3 3 3 3 3 3 2 2 3 2 2 2 1
4 5 7 4 3 4 3 8 5 4 4 3 4 3 2 2 3 3 3 3 3 4 4 4 3 3 3 3 3 3 2 2 2 2 3 2 3 3 3 3 3 3 3 3 3 3 3 3 2
Wind_Direction
64 79 76 57 55 52 47 354 358 35 48 37 55 76 87 78 86 132 267 288 250 284 305 301 9 40 44 51 70 69 65 65 64 63 62 66 67 68 75 85 90 91 92 90 88 86 85 90 95
87 84 56 58 75 69 19 337 41 63 134 140 67 68 72 67 71 114 302 274 270 309 331 324 27 38 48 55 66 73 68 65 61 61 59 60 58 66 75 81 85 89 91 90 88 87 88 87 91
92 57 73 65 79 122 136 278 119 79 97 100 69 53 74 75 68 173 242 208 91 14 343 323 42 43 58 67 68 69 65 63 63 61 56 53 57 70 74 80 80 85 86 87 88 86 87 86 87
80 47 54 67 74 106 169 179 136 113 66 57 90 66 46 8 196 193 158 133 104 356 335 319 58 58 64 69 65 62 62 63 66 66 62 56 55 64 68 74 76 79 82 82 86 88 87 84 82
61 71 62 60 49 6 22 116 118 103 76 60 87 89 20 343 31 104 124 130 140 329 337 334 48 67 71 68 65 59 57 59 63 62 60 60 60 62 66 71 74 77 78 79 80 85 85 84 80
57 66 79 84 43 8 14 59 92 86 89 91 98 103 341 329 43 96 125 126 154 46 2 357 13 48 54 47 50 56 56 57 55 55 59 66 66 65 65 70 74 79 79 78 77 81 82 81 81
94 84 103 123 100 27 87 97 102 106 98 111 126 108 322 302 250 131 107 90 56 41 26 5 6 12 21 32 37 47 48 54 57 58 61 60 62 68 68 69 69 71 74 79 80 79 80 79 78
113 95 85 103 128 172 137 109 110 110 113 94 113 134 208 231 144 98 84 59 38 30 23 5 8 8 3 3 20 38 44 55 56 55 53 49 46 55 63 63 67 67 70 76 78 80 81 79 77
85 77 111 177 167 182 148 110 85 83 95 70 69 153 194 139 109 93 70 35 21 18 10 11 14 4 357 359 26 29 36 41 47 47 49 45 31 28 43 61 64 64 70 79 78 79 82 79 75
79 103 188 194 173 161 143 134 140 97 83 66 47 47 92 106 112 115 113 110 51 347 353 18 21 12 12 23 31 21 32 35 38 38 39 41 37 37 46 51 61 62 68 75 75 73 73 70 64
94 140 173 153 156 139 122 107 113 123 158 201 183 172 142 124 128 139 148 171 192 255 9 25 31 30 30 28 37 30 35 38 35 38 43 48 46 43 42 41 40 43 56 61 64 64 62 65 68
96 131 150 151 137 127 134 130 117 160 216 208 178 162 154 154 170 175 173 181 156 105 345 11 51 53 36 43 49 49 46 43 37 31 40 49 51 48 47 50 43 44 59 73 69 70 64 66 67
95 125 117 126 119 124 112 120 152 225 227 129 135 145 165 177 187 193 183 169 152 155 245 6 54 60 46 51 49 61 51 50 46 39 40 58 68 63 57 54 51 47 63 80 81 78 73 67 61
142 111 78 88 110 127 122 73 109 250 144 134 150 174 191 195 194 187 182 182 192 195 209 131 94 79 70 65 62 60 50 50 49 43 49 62 74 79 74 63 55 49 57 72 84 87 81 70 64
88 75 27 3 135 157 111 340 246 229 143 160 182 194 207 221 209 206 206 201 200 198 185 172 151 94 81 70 60 64 53 54 51 44 49 62 72 81 86 78 64 57 66 73 79 77 76 76 67
64 59 351 288 176 153 130 262 268 177 159 193 208 209 221 241 232 229 215 203 195 177 162 172 133 106 90 79 68 60 53 58 53 50 51 61 67 78 88 85 77 74 77 78 79 75 74 67 65
39 71 261 287 208 150 158 246 276 168 173 202 215 217 221 243 252 241 214 197 188 178 161 143 116 117 108 93 83 69 57 50 49 54 54 60 67 75 88 88 84 84 83 77 84 76 84 82 70
223 222 251 258 236 155 190 247 268 193 187 209 218 224 225 232 243 237 205 189 177 167 154 141 126 115 108 88 76 60 51 36 42 48 48 64 70 77 85 85 82 84 85 77 81 85 76 82 80
183 211 259 263 226 170 217 249 268 238 205 217 220 220 226 235 248 211 177 160 153 155 155 147 140 138 121 99 94 84 57 17 31 40 51 63 76 86 89 88 85 85 92 99 101 98 86 73 77
195 239 266 289 300 171 240 269 271 236 215 215 211 214 218 223 224 197 170 159 166 172 173 162 162 161 150 142 135 124 124 88 61 31 46 51 73 88 103 103 101 96 99 94 96 100 99 70 47
233 210 229 246 360 43 7 316 298 281 251 228 213 211 207 205 204 199 182 178 166 178 186 183 182 175 163 143 112 84 58 38 33 24 21 16 62 85 100 118 116 113 114 124 122 113 115 114 42
252 241 218 213 94 300 46 298 293 288 303 263 233 215 214 212 197 189 185 184 184 188 183 178 175 174 167 150 141 140 142 159 218 229 276 7 42 80 105 130 128 128 124 134 145 117 118 126 118
222 79 109 108 145 352 6 214 289 323 293 275 247 226 220 209 196 193 194 192 187 178 173 171 165 172 168 158 159 153 157 178 179 139 79 28 19 49 130 146 138 138 137 147 140 120 119 127 138
125 66 53 49 69 338 260 183 284 266 248 273 258 229 220 208 199 196 193 177 170 166 169 166 162 173 163 163 165 167 172 172 162 174 171 274 329 338 214 149 145 151 152 163 164 150 143 141 134
78 80 24 1 9 266 275 209 254 263 252 244 252 238 215 196 189 187 185 181 180 180 182 177 176 191 188 174 181 190 191 184 194 203 200 201 222 243 243 187 173 175 182 176 159 153 168 164 157
155 137 154 205 239 284 316 244 258 278 283 269 251 223 194 185 188 194 197 190 190 191 188 186 192 200 197 194 206 205 203 196 209 209 203 205 214 220 210 199 197 195 186 177 163 163 185 169 178
136 162 162 139 184 283 287 291 304 315 342 5 18 60 206 205 199 200 197 193 192 194 197 197 199 203 203 205 206 206 205 207 215 217 210 213 219 218 200 190 194 200 190 182 168 172 189 167 180
138 142 105 120 158 275 296 285 267 283 292 310 313 284 261 225 209 207 203 199 192 193 196 197 203 205 206 204 206 207 211 211 216 210 217 222 225 213 189 189 188 192 188 183 171 169 176 157 179
107 110 116 123 156 169 263 272 240 234 243 251 261 261 256 235 217 209 208 200 189 181 182 193 205 205 210 208 204 205 213 210 210 216 223 221 218 202 195 189 184 186 188 184 173 177 167 162 177
168 173 150 158 216 182 197 266 279 255 252 245 258 266 261 238 220 207 204 188 184 187 190 194 201 207 215 203 193 207 217 205 214 231 229 219 214 205 200 189 186 194 193 183 181 187 178 178 187